Location: Krakow
(50.0830°N, 19.9170°E)
Time: 07:23:20
(UTC+02:00)

Tiros 1 despin weight - Pass Details

Date: 24 March 2026
Orbit: 555 x 592 km, 48.2° (Epoch: 18 April)

Event Time Altitude Azimuth Distance (km) Brightness Sun altitude
Rises 07:45:53 0° 276° (W) 2,810 ? 19.8°
Reaches altitude 10° 07:49:22 10° 247° (WSW) 1,898 ? 20.3°
Maximum altitude 07:51:14 13° 222° (SW) 1,727 ? 20.6°
Drops below altitude 10° 07:53:05 10° 196° (SSW) 1,883 ? 20.8°
Sets 07:56:31 0° 167° (SSE) 2,766 ? 21.3°
